Time,TemperatureF,DewpointF,PressureIn,WindDirection,WindDirectionDegrees,WindSpeedMPH,WindSpeedGustMPH,Humidity,HourlyPrecipIn,Conditions,Clouds,dailyrainin,SoftwareType,DateUTC
2013-05-19 00:01:00,64.9,64.3,29.90,NE,45,0.0,-999.0,98,-99.99,,,0.00,Acu-Link.com,2013-05-19 04:01:00,
2013-05-19 00:16:00,64.8,64.2,29.91,NE,45,0.0,-999.0,98,-99.99,,,0.00,Acu-Link.com,2013-05-19 04:16:00,
2013-05-19 00:31:00,64.9,64.3,29.91,NE,45,0.0,-999.0,98,-99.99,,,0.00,Acu-Link.com,2013-05-19 04:31:00,
2013-05-19 00:46:00,64.8,64.2,29.90,NE,45,0.0,-999.0,98,-99.99,,,0.00,Acu-Link.com,2013-05-19 04:46:00,
2013-05-19 01:02:00,64.8,64.2,29.89,NE,45,0.0,-999.0,98,-99.99,,,0.00,Acu-Link.com,2013-05-19 05:02:00,
2013-05-19 01:17:00,64.8,64.2,29.90,NE,45,0.0,-999.0,98,-99.99,,,0.00,Acu-Link.com,2013-05-19 05:17:00,
2013-05-19 01:32:00,64.8,64.2,29.90,NE,45,0.0,-999.0,98,-99.99,,,0.00,Acu-Link.com,2013-05-19 05:32:00,
2013-05-19 01:47:00,64.8,64.2,29.90,NE,45,0.0,-999.0,98,-99.99,,,0.00,Acu-Link.com,2013-05-19 05:47:00,
2013-05-19 02:02:00,64.8,64.2,29.90,NE,45,0.0,-999.0,98,-99.99,,,0.00,Acu-Link.com,2013-05-19 06:02:00,
2013-05-19 02:18:00,64.8,64.2,29.89,NE,45,0.0,-999.0,98,-99.99,,,0.00,Acu-Link.com,2013-05-19 06:18:00,
2013-05-19 02:33:00,64.8,64.2,29.88,NE,45,0.0,-999.0,98,-99.99,,,0.00,Acu-Link.com,2013-05-19 06:33:00,
2013-05-19 02:48:00,64.8,64.2,29.88,NE,45,0.0,-999.0,98,-99.99,,,0.00,Acu-Link.com,2013-05-19 06:48:00,
2013-05-19 03:03:00,64.8,64.2,29.88,NE,45,0.0,-999.0,98,-99.99,,,0.00,Acu-Link.com,2013-05-19 07:03:00,
2013-05-19 03:18:00,64.8,64.2,29.88,NE,45,0.0,-999.0,98,-99.99,,,0.00,Acu-Link.com,2013-05-19 07:18:00,
2013-05-19 03:34:00,64.6,64.0,29.88,NE,45,0.0,-999.0,98,-99.99,,,0.00,Acu-Link.com,2013-05-19 07:34:00,
2013-05-19 03:49:00,64.6,64.0,29.88,NE,45,0.0,-999.0,98,-99.99,,,0.01,Acu-Link.com,2013-05-19 07:49:00,
2013-05-19 04:04:00,64.8,64.2,29.88,NE,45,0.0,-999.0,98,-99.99,,,0.03,Acu-Link.com,2013-05-19 08:04:00,
2013-05-19 04:20:00,64.6,64.0,29.88,NE,45,0.0,-999.0,98,-99.99,,,0.10,Acu-Link.com,2013-05-19 08:20:00,
2013-05-19 04:35:00,64.8,64.2,29.87,NE,45,0.0,-999.0,98,-99.99,,,0.12,Acu-Link.com,2013-05-19 08:35:00,
2013-05-19 04:50:00,64.8,64.2,29.87,NE,45,0.0,-999.0,98,-99.99,,,0.14,Acu-Link.com,2013-05-19 08:50:00,
2013-05-19 05:05:00,64.8,64.2,29.89,NE,45,0.0,-999.0,98,-99.99,,,0.14,Acu-Link.com,2013-05-19 09:05:00,
2013-05-19 05:20:00,64.8,64.2,29.89,NE,45,0.0,-999.0,98,-99.99,,,0.14,Acu-Link.com,2013-05-19 09:20:00,
2013-05-19 05:35:00,64.8,64.2,29.89,NE,45,0.0,-999.0,98,-99.99,,,0.14,Acu-Link.com,2013-05-19 09:35:00,
2013-05-19 05:50:00,64.8,64.2,29.88,NE,45,0.0,-999.0,98,-99.99,,,0.14,Acu-Link.com,2013-05-19 09:50:00,
2013-05-19 06:06:00,64.8,64.2,29.90,NE,45,0.0,-999.0,98,-99.99,,,0.14,Acu-Link.com,2013-05-19 10:06:00,
2013-05-19 06:21:00,64.8,64.2,29.92,NE,45,0.0,-999.0,98,-99.99,,,0.14,Acu-Link.com,2013-05-19 10:21:00,
2013-05-19 06:36:00,64.8,64.2,29.91,NE,45,0.0,-999.0,98,-99.99,,,0.41,Acu-Link.com,2013-05-19 10:36:00,
2013-05-19 06:51:00,64.8,64.2,29.92,NE,45,0.0,-999.0,98,-99.99,,,0.48,Acu-Link.com,2013-05-19 10:51:00,
2013-05-19 07:07:00,64.8,64.2,29.93,NE,45,0.0,-999.0,98,-99.99,,,0.51,Acu-Link.com,2013-05-19 11:07:00,
2013-05-19 07:22:00,64.8,64.2,29.95,NE,45,0.0,-999.0,98,-99.99,,,0.52,Acu-Link.com,2013-05-19 11:22:00,
2013-05-19 07:37:00,64.6,64.0,29.94,NE,45,0.0,-999.0,98,-99.99,,,0.54,Acu-Link.com,2013-05-19 11:37:00,
2013-05-19 07:52:00,64.6,64.0,29.94,NE,45,0.0,-999.0,98,-99.99,,,0.55,Acu-Link.com,2013-05-19 11:52:00,
2013-05-19 08:07:00,64.6,64.0,29.94,NE,45,0.0,-999.0,98,-99.99,,,0.55,Acu-Link.com,2013-05-19 12:07:00,
2013-05-19 08:23:00,64.8,64.2,29.95,NE,45,0.0,-999.0,98,-99.99,,,0.57,Acu-Link.com,2013-05-19 12:23:00,
2013-05-19 08:38:00,64.8,64.2,29.95,NE,45,0.0,-999.0,98,-99.99,,,0.59,Acu-Link.com,2013-05-19 12:38:00,
2013-05-19 08:53:00,64.9,64.3,29.94,NE,45,0.0,-999.0,98,-99.99,,,0.59,Acu-Link.com,2013-05-19 12:53:00,
2013-05-19 09:08:00,65.3,64.7,29.94,NE,45,0.0,-999.0,98,-99.99,,,0.59,Acu-Link.com,2013-05-19 13:08:00,
2013-05-19 09:23:00,65.3,64.7,29.93,NE,45,0.0,-999.0,98,-99.99,,,0.59,Acu-Link.com,2013-05-19 13:23:00,
2013-05-19 09:39:00,65.5,64.9,29.93,NE,45,0.0,-999.0,98,-99.99,,,0.59,Acu-Link.com,2013-05-19 13:39:00,
2013-05-19 09:54:00,66.0,65.4,29.94,NE,45,0.0,-999.0,98,-99.99,,,0.59,Acu-Link.com,2013-05-19 13:54:00,
2013-05-19 10:09:00,66.6,66.0,29.93,NE,45,0.0,-999.0,98,-99.99,,,0.59,Acu-Link.com,2013-05-19 14:09:00,
2013-05-19 10:24:00,67.5,66.9,29.92,NE,45,0.0,-999.0,98,-99.99,,,0.59,Acu-Link.com,2013-05-19 14:24:00,
2013-05-19 10:39:00,67.8,67.2,29.92,NE,45,0.0,-999.0,98,-99.99,,,0.59,Acu-Link.com,2013-05-19 14:39:00,
2013-05-19 10:55:00,67.6,67.0,29.93,NE,45,0.0,-999.0,98,-99.99,,,0.59,Acu-Link.com,2013-05-19 14:55:00,
2013-05-19 11:10:00,67.6,67.0,29.93,NE,45,0.0,-999.0,98,-99.99,,,0.59,Acu-Link.com,2013-05-19 15:10:00,
2013-05-19 11:25:00,67.5,66.9,29.92,NE,45,0.0,-999.0,98,-99.99,,,0.59,Acu-Link.com,2013-05-19 15:25:00,
2013-05-19 11:40:00,67.3,66.7,29.92,NE,45,0.0,-999.0,98,-99.99,,,0.59,Acu-Link.com,2013-05-19 15:40:00,
2013-05-19 11:55:00,67.3,66.7,29.93,NE,45,0.0,-999.0,98,-99.99,,,0.59,Acu-Link.com,2013-05-19 15:55:00,
2013-05-19 12:11:00,67.3,66.7,29.94,NE,45,0.0,-999.0,98,-99.99,,,0.59,Acu-Link.com,2013-05-19 16:11:00,
2013-05-19 12:26:00,66.9,66.3,29.95,NE,45,0.0,-999.0,98,-99.99,,,0.59,Acu-Link.com,2013-05-19 16:26:00,
2013-05-19 12:41:00,66.7,66.1,29.93,NE,45,0.0,-999.0,98,-99.99,,,0.59,Acu-Link.com,2013-05-19 16:41:00,
2013-05-19 12:56:00,66.6,66.0,29.91,NE,45,0.0,-999.0,98,-99.99,,,0.59,Acu-Link.com,2013-05-19 16:56:00,
2013-05-19 13:12:00,66.6,66.0,29.92,NE,45,0.0,-999.0,98,-99.99,,,0.59,Acu-Link.com,2013-05-19 17:12:00,
2013-05-19 13:27:00,66.4,65.8,29.92,NE,45,0.0,-999.0,98,-99.99,,,0.59,Acu-Link.com,2013-05-19 17:27:00,
2013-05-19 13:42:00,67.3,66.7,29.94,NE,45,0.0,-999.0,98,-99.99,,,0.59,Acu-Link.com,2013-05-19 17:42:00,
2013-05-19 13:57:00,67.8,67.2,29.93,NE,45,0.0,-999.0,98,-99.99,,,0.59,Acu-Link.com,2013-05-19 17:57:00,
2013-05-19 15:48:00,66.9,66.3,29.90,NE,45,0.0,-999.0,98,-99.99,,,0.60,Acu-Link.com,2013-05-19 19:48:00,
2013-05-19 16:03:00,66.6,66.0,29.90,NE,45,0.0,-999.0,98,-99.99,,,0.63,Acu-Link.com,2013-05-19 20:03:00,
2013-05-19 16:19:00,66.6,66.0,29.88,NE,45,0.0,-999.0,98,-99.99,,,0.68,Acu-Link.com,2013-05-19 20:19:00,
2013-05-19 16:34:00,66.6,66.0,29.87,NE,45,0.0,-999.0,98,-99.99,,,0.71,Acu-Link.com,2013-05-19 20:34:00,
2013-05-19 16:49:00,65.3,64.7,29.86,East,90,1.7,-999.0,98,-99.99,,,0.71,Acu-Link.com,2013-05-19 20:49:00,
2013-05-19 17:04:00,64.8,64.2,29.84,East,90,0.0,-999.0,98,-99.99,,,0.71,Acu-Link.com,2013-05-19 21:04:00,
2013-05-19 17:19:00,65.1,64.5,29.84,East,90,0.0,-999.0,98,-99.99,,,0.71,Acu-Link.com,2013-05-19 21:19:00,
2013-05-19 17:35:00,65.7,65.1,29.84,East,90,0.0,-999.0,98,-99.99,,,0.71,Acu-Link.com,2013-05-19 21:35:00,
2013-05-19 17:50:00,65.7,65.1,29.83,South,180,1.1,-999.0,98,-99.99,,,0.71,Acu-Link.com,2013-05-19 21:50:00,
2013-05-19 18:05:00,66.0,65.4,29.85,ESE,112,1.1,-999.0,98,-99.99,,,0.71,Acu-Link.com,2013-05-19 22:05:00,
2013-05-19 18:20:00,66.2,65.6,29.84,ESE,112,0.0,-999.0,98,-99.99,,,0.71,Acu-Link.com,2013-05-19 22:20:00,
2013-05-19 18:35:00,66.2,65.6,29.86,ESE,112,0.0,-999.0,98,-99.99,,,0.71,Acu-Link.com,2013-05-19 22:35:00,
2013-05-19 18:51:00,66.0,65.4,29.88,ESE,112,1.1,-999.0,98,-99.99,,,0.71,Acu-Link.com,2013-05-19 22:51:00,
2013-05-19 19:06:00,66.0,65.4,29.87,ESE,112,0.0,-999.0,98,-99.99,,,0.71,Acu-Link.com,2013-05-19 23:06:00,
2013-05-19 19:21:00,65.8,65.2,29.85,ESE,112,0.0,-999.0,98,-99.99,,,0.71,Acu-Link.com,2013-05-19 23:21:00,
2013-05-19 19:36:00,65.7,65.1,29.86,ESE,112,0.0,-999.0,98,-99.99,,,0.71,Acu-Link.com,2013-05-19 23:36:00,
2013-05-19 19:51:00,65.5,64.9,29.86,ESE,112,0.0,-999.0,98,-99.99,,,0.71,Acu-Link.com,2013-05-19 23:51:00,
2013-05-19 20:07:00,65.7,65.1,29.87,ESE,112,0.0,-999.0,98,-99.99,,,0.71,Acu-Link.com,2013-05-20 00:07:00,
2013-05-19 20:22:00,65.5,64.9,29.88,ESE,112,0.0,-999.0,98,-99.99,,,0.71,Acu-Link.com,2013-05-20 00:22:00,
2013-05-19 20:37:00,65.3,64.7,29.89,ESE,112,0.0,-999.0,98,-99.99,,,0.71,Acu-Link.com,2013-05-20 00:37:00,
2013-05-19 20:52:00,65.3,64.7,29.88,ESE,112,0.0,-999.0,98,-99.99,,,0.71,Acu-Link.com,2013-05-20 00:52:00,
2013-05-19 21:08:00,64.9,64.3,29.88,ESE,112,0.0,-999.0,98,-99.99,,,0.71,Acu-Link.com,2013-05-20 01:08:00,
2013-05-19 21:23:00,64.8,64.2,29.88,ESE,112,0.0,-999.0,98,-99.99,,,0.71,Acu-Link.com,2013-05-20 01:23:00,
2013-05-19 21:38:00,64.4,63.8,29.89,ESE,112,0.0,-999.0,98,-99.99,,,0.71,Acu-Link.com,2013-05-20 01:38:00,
2013-05-19 21:53:00,64.4,63.8,29.89,ESE,112,0.0,-999.0,98,-99.99,,,0.71,Acu-Link.com,2013-05-20 01:53:00,
2013-05-19 22:08:00,64.0,63.4,29.90,ESE,112,0.0,-999.0,98,-99.99,,,0.71,Acu-Link.com,2013-05-20 02:08:00,
2013-05-19 22:24:00,63.9,63.3,29.91,ESE,112,0.0,-999.0,98,-99.99,,,0.71,Acu-Link.com,2013-05-20 02:24:00,
2013-05-19 22:39:00,63.5,62.9,29.91,ESE,112,0.0,-999.0,98,-99.99,,,0.71,Acu-Link.com,2013-05-20 02:39:00,
2013-05-19 22:54:00,63.0,62.4,29.91,ESE,112,0.0,-999.0,98,-99.99,,,0.71,Acu-Link.com,2013-05-20 02:54:00,
2013-05-19 23:09:00,62.4,61.8,29.92,ESE,112,0.0,-999.0,98,-99.99,,,0.71,Acu-Link.com,2013-05-20 03:09:00,
2013-05-19 23:24:00,62.2,61.6,29.91,ESE,112,0.0,-999.0,98,-99.99,,,0.71,Acu-Link.com,2013-05-20 03:24:00,
2013-05-19 23:40:00,61.9,61.3,29.90,ESE,112,0.0,-999.0,98,-99.99,,,0.71,Acu-Link.com,2013-05-20 03:40:00,
2013-05-19 23:55:00,61.7,61.1,29.91,ESE,112,0.0,-999.0,98,-99.99,,,0.71,Acu-Link.com,2013-05-20 03:55:00,